Theta_e
315 315 315 314 314 313 312 312 312 311 309 320 319 323 310 309 306 315 318 319 316 309 303 306 304 301 301 304 303 304 303 302 303 302 303 301 303 302 301 300 299 301 301 300 300 300 297 299 298 299 299 299 301 303 305 304 303 304 300 302 302 306 300 296 296 299 300 301 302 302 302 301 301 302 303 302 301 301 301 302 306 301 302 300 303 300 301
315 315 315 314 313 312 312 311 312 311 309 315 320 319 310 309 308 311 316 319 315 307 299 299 300 301 303 303 301 304 302 302 301 301 302 302 301 301 300 301 303 300 303 301 299 302 295 298 299 298 300 298 302 302 304 306 303 304 301 301 302 298 300 300 294 294 295 297 300 299 301 302 300 299 301 301 302 302 302 304 307 302 302 302 301 296 300
315 314 314 314 313 312 311 311 311 311 310 312 318 314 311 311 311 310 312 316 314 304 305 303 301 301 301 301 300 300 300 302 303 302 301 304 303 302 299 302 302 301 302 300 301 302 300 296 300 300 300 299 302 302 304 306 304 304 305 304 305 301 300 300 292 289 287 288 289 292 295 297 299 299 299 300 300 300 302 299 302 297 303 305 302 301 307
314 314 314 313 313 312 312 312 312 311 310 307 320 316 316 306 303 306 308 311 309 308 309 306 303 302 302 300 300 301 299 301 303 304 302 304 303 303 302 303 304 301 301 299 299 299 302 300 298 300 298 300 301 301 302 303 304 305 304 305 304 300 300 300 297 295 294 295 297 298 300 298 296 295 297 298 300 302 303 304 302 298 303 303 306 306 305
315 315 314 313 313 312 312 312 312 311 309 307 319 319 314 310 303 305 302 308 307 305 307 305 305 301 303 299 300 298 299 300 301 304 300 302 302 302 302 301 300 299 300 298 298 299 299 302 301 300 299 300 301 302 302 302 304 305 303 304 304 301 297 297 298 297 297 297 295 297 298 296 295 295 295 297 300 302 303 301 299 307 303 298 307 309 305
315 314 315 314 313 312 312 312 311 310 309 307 320 311 314 303 306 309 308 302 299 303 302 305 304 303 304 301 302 299 299 299 298 301 303 303 304 301 301 301 301 301 300 300 297 299 299 300 298 300 300 299 300 300 302 301 302 304 302 304 303 300 296 296 296 295 296 297 296 297 296 296 295 295 295 296 299 302 301 301 302 305 302 299 306 309 306
315 314 315 315 313 313 313 313 311 310 309 311 324 309 310 310 308 307 310 304 304 304 303 304 303 303 304 302 302 299 299 297 299 300 300 301 301 303 298 298 300 300 301 301 299 300 295 296 301 300 299 300 300 298 299 301 303 302 302 302 304 302 297 296 297 295 295 295 296 296 295 294 296 296 296 297 299 302 303 302 303 306 306 307 308 308 306
315 314 314 315 314 313 314 312 311 311 308 323 318 315 311 307 309 304 309 309 305 305 305 304 303 301 303 301 300 301 299 298 300 301 301 298 299 303 299 299 301 301 301 303 299 300 302 300 298 301 300 298 301 300 301 300 302 302 300 301 303 300 296 297 296 295 293 294 296 296 294 295 295 295 296 297 299 302 305 304 305 307 306 307 306 307 305
315 314 314 315 314 313 314 313 311 311 311 322 316 313 316 314 316 315 308 303 304 306 304 304 304 302 303 302 301 301 300 300 302 300 303 301 299 301 299 301 301 302 302 302 301 303 303 303 302 302 302 299 301 300 300 301 300 300 300 300 300 300 298 298 297 293 292 294 294 293 295 294 294 295 296 296 297 298 300 303 305 305 304 305 305 304 304
314 314 314 315 314 313 313 313 312 310 312 321 318 311 319 318 317 318 313 302 305 303 304 303 304 299 302 304 302 302 300 302 303 299 302 303 304 303 301 301 301 300 301 301 302 304 304 304 305 305 305 305 304 304 303 302 301 300 300 301 299 300 298 294 294 292 292 294 293 293 292 293 291 293 296 298 300 303 305 307 307 307 307 304 302 304 309
314 314 314 314 314 314 315 314 313 311 318 319 319 315 317 315 313 315 312 304 304 304 305 302 302 301 303 303 302 302 301 301 303 300 298 303 302 305 304 303 302 301 301 303 306 307 306 307 307 307 305 304 303 303 303 302 303 302 301 299 300 300 298 296 298 292 293 293 293 293 292 286 288 299 302 301 300 301 299 301 305 307 308 306 309 310 311
314 314 314 314 314 314 315 315 313 310 312 323 325 318 317 319 318 315 310 302 300 306 304 302 304 302 302 302 303 301 301 301 302 305 301 302 303 304 304 303 306 300 304 309 308 308 307 307 306 306 304 303 302 302 302 301 302 304 303 301 299 298 298 297 297 293 292 294 293 290 285 287 297 302 303 303 303 304 304 305 305 307 308 308 308 308 309
314 314 314 314 314 314 314 314 314 312 310 320 323 318 320 320 317 313 310 306 302 305 303 302 305 304 304 304 303 303 303 303 304 305 304 303 302 304 305 305 303 303 308 306 306 305 302 300 302 302 300 301 301 302 301 301 301 302 303 303 300 298 296 298 295 296 296 292 291 283 286 296 300 300 302 304 303 306 304 301 303 305 305 307 305 307 309
314 314 314 314 314 314 314 314 313 313 311 313 321 320 322 322 320 314 311 307 302 305 306 304 304 303 304 304 305 304 304 304 305 306 303 305 304 303 305 307 307 309 309 308 305 305 301 301 296 297 297 299 299 298 299 301 301 301 301 302 302 301 300 297 293 297 290 291 290 289 295 294 296 296 300 300 301 301 300 296 300 305 306 307 306 306 307
314 314 314 314 313 314 314 314 314 314 313 309 323 323 321 321 320 317 316 313 303 304 307 302 304 305 304 304 305 303 304 304 303 304 306 306 305 307 308 309 311 310 309 307 303 303 301 299 294 294 295 294 289 292 299 297 301 301 302 302 303 304 299 299 294 293 295 292 289 290 289 286 293 299 305 307 307 307 307 302 301 306 307 308 307 306 306
313 314 314 313 313 314 314 314 314 313 313 309 323 323 322 322 323 321 316 310 307 300 304 307 308 306 305 305 305 305 304 303 304 303 303 305 306 307 310 311 311 310 307 305 305 302 299 295 294 293 291 293 296 294 292 298 296 300 302 302 301 302 302 302 295 294 293 291 288 288 285 290 300 302 304 306 306 305 305 297 294 305 308 307 308 306 306
313 313 313 313 313 313 313 314 314 313 313 309 319 322 322 324 321 319 317 314 310 302 308 309 308 308 306 304 304 304 306 304 304 300 301 302 304 306 308 310 312 310 307 304 302 300 296 296 297 296 297 298 292 293 297 295 294 295 299 300 299 298 297 297 294 293 294 292 289 287 293 292 300 303 303 304 306 302 302 289 290 304 307 307 307 306 306
313 313 313 313 313 313 313 313 313 313 312 311 317 322 322 325 324 323 320 313 308 306 309 310 308 306 305 308 305 308 308 306 306 305 303 306 306 305 307 307 305 308 308 303 301 297 297 295 292 292 292 299 300 297 289 295 293 293 292 296 294 295 296 296 292 293 293 291 292 293 295 301 303 303 305 305 305 302 292 286 299 305 307 307 306 307 306
313 313 313 313 313 313 313 313 313 313 313 309 318 322 323 324 325 326 321 315 311 306 310 312 313 310 311 310 310 309 310 311 308 303 302 302 304 308 308 309 308 302 306 302 301 297 296 296 299 297 294 296 298 291 298 292 292 298 298 294 294 295 296 295 296 292 292 293 291 290 295 302 305 305 306 306 301 290 291 301 309 308 307 307 306 305 307
312 313 313 312 312 312 313 313 313 313 313 311 314 321 321 323 325 324 319 313 314 310 311 311 311 309 311 309 307 306 308 307 307 305 302 300 308 308 304 301 305 306 304 304 297 300 296 294 296 297 295 295 296 300 296 297 301 294 295 298 294 294 292 291 292 295 294 294 291 288 285 300 306 305 304 305 296 300 303 307 307 306 307 306 307 307 307
312 312 312 312 312 312 313 313 313 312 312 313 310 320 321 323 323 324 324 319 314 310 311 314 314 313 312 311 311 311 310 308 308 305 307 307 311 307 295 296 302 303 300 301 294 296 297 295 296 296 300 298 298 296 293 294 296 303 301 297 296 301 293 293 294 298 290 290 288 288 297 303 307 304 298 303 305 306 308 306 306 307 307 307 307 308 309
312 312 312 312 312 312 313 313 312 312 312 313 310 319 318 322 322 321 322 320 316 313 315 316 316 315 316 316 317 316 314 313 314 314 310 307 310 307 307 307 306 305 306 306 300 299 299 300 301 297 294 296 300 294 298 292 290 298 302 301 290 302 297 301 293 300 296 294 297 302 304 306 307 307 306 308 309 309 309 307 306 306 307 308 306 307 308
312 312 312 312 311 311 312 313 312 312 311 312 314 319 319 318 320 321 321 318 322 320 320 318 318 318 318 318 319 319 319 320 318 317 315 310 307 309 307 306 305 310 310 308 303 303 303 300 298 302 299 300 298 296 297 295 293 297 294 300 299 305 306 307 301 298 304 305 304 307 305 305 306 307 308 307 307 309 309 307 307 307 308 308 307 308 308
311 311 311 311 311 311 312 312 312 312 311 312 313 318 316 316 317 319 321 318 314 310 317 315 313 311 312 313 316 319 318 318 318 319 321 318 306 307 310 311 312 310 309 311 314 305 304 303 303 303 296 301 301 296 294 292 295 299 298 297 300 303 305 301 296 302 296 291 303 303 303 305 305 305 306 307 308 309 309 308 307 308 308 308 309 308 308
311 311 311 311 311 311 311 312 312 312 311 312 314 316 316 316 318 318 317 313 313 310 304 308 310 313 315 317 318 317 318 320 321 320 318 318 314 308 306 313 314 310 309 313 312 308 307 301 301 300 296 304 302 294 301 297 296 301 294 298 300 299 306 300 300 300 297 297 303 305 306 307 307 307 305 304 306 308 308 309 309 309 309 308 308 309 308
311 311 311 311 311 310 311 312 312 311 311 310 311 315 315 316 318 318 319 319 318 314 308 304 309 315 316 314 313 315 318 318 318 317 317 317 317 316 317 316 315 317 315 313 311 307 304 303 304 303 297 299 305 298 299 301 300 303 298 299 304 305 303 296 301 298 301 304 305 306 305 306 307 306 306 307 307 307 307 307 307 308 307 308 309 310 308
311 311 311 310 310 310 310 311 311 311 311 311 314 314 313 315 316 316 317 316 313 309 309 305 311 313 314 310 314 316 316 317 317 317 317 317 316 317 316 315 314 314 312 310 310 308 306 305 302 300 302 301 305 303 303 301 300 299 299 303 306 302 297 302 301 296 296 297 300 305 297 298 302 304 306 307 308 308 308 307 306 306 307 308 307 307 308
311 310 310 310 310 310 310 311 311 310 311 312 314 315 315 313 315 316 317 319 315 306 306 307 308 310 313 312 314 317 317 318 317 315 315 315 316 315 315 314 315 312 311 308 305 304 304 301 300 306 306 307 301 300 304 304 304 301 300 302 306 301 302 301 297 296 296 302 305 306 305 304 306 307 308 308 308 308 306 306 306 307 308 308 306 305 306
311 310 310 310 310 309 310 311 311 311 311 310 316 314 315 315 317 316 317 320 319 313 311 311 311 311 307 309 315 316 317 317 317 316 316 315 315 314 314 315 314 314 310 308 306 304 304 303 305 302 301 306 302 299 301 296 297 296 301 306 306 306 307 305 304 304 304 306 306 307 305 302 305 307 308 308 309 308 306 307 308 307 308 307 307 307 305
310 310 310 309 309 309 310 310 310 311 311 315 315 316 314 314 316 318 318 319 319 316 309 307 305 307 313 313 312 315 316 317 316 316 314 314 314 315 315 315 314 313 312 308 304 300 304 303 306 307 306 308 301 299 296 298 297 300 306 306 309 309 309 308 308 305 303 307 308 308 308 307 308 308 308 309 309 309 307 307 308 308 308 307 306 306 307
310 310 310 309 309 309 309 309 310 310 311 314 314 314 312 308 315 318 315 319 320 315 311 310 306 310 310 312 313 312 315 316 316 315 315 316 316 316 316 315 315 313 307 305 303 306 305 302 302 302 306 307 305 299 296 296 295 297 302 304 305 306 306 307 309 309 309 309 309 309 309 308 308 308 308 308 308 309 308 308 308 307 308 308 306 307 306
310 310 309 309 309 309 310 310 310 310 314 315 315 314 313 313 318 318 315 317 318 314 310 306 307 307 307 310 313 316 316 317 315 316 316 317 315 315 315 314 311 314 310 306 305 305 303 305 301 302 302 306 304 299 298 294 292 293 304 305 306 307 308 307 308 308 309 310 308 306 305 306 307 305 304 308 308 309 308 308 308 308 308 307 307 307 307
310 310 310 310 310 310 310 310 310 311 316 315 310 309 311 310 310 313 316 319 318 314 314 309 303 305 305 308 313 315 316 316 314 314 312 315 313 313 310 313 313 311 313 306 302 300 308 306 306 302 305 309 302 300 297 293 297 304 305 306 306 306 307 308 308 308 308 309 308 303 302 303 305 307 308 309 309 309 309 308 308 308 307 306 306 306 307
310 311 311 311 310 310 310 310 311 310 309 313 316 316 319 311 312 309 318 320 316 317 315 307 304 304 304 312 307 312 317 309 310 310 306 315 315 311 309 309 311 307 310 303 307 307 307 306 302 302 305 303 303 297 292 299 304 304 305 306 307 307 307 307 307 307 307 308 308 308 308 308 308 309 308 308 308 309 309 309 309 307 305 305 304 304 305
310 311 311 311 311 310 311 311 314 317 316 317 317 320 319 311 312 313 316 317 309 308 309 308 307 303 302 303 300 307 316 312 307 311 305 310 314 309 309 305 308 302 301 309 306 304 302 301 306 299 297 304 298 292 293 301 303 304 305 306 306 306 306 304 305 307 308 308 308 308 308 308 307 305 305 306 306 307 307 307 308 307 305 305 304 305 306
311 312 312 312 312 312 315 314 317 319 316 314 316 316 313 314 315 320 320 320 316 308 306 305 305 301 302 298 298 308 314 310 311 312 311 310 309 311 309 306 300 303 309 306 301 304 301 308 303 295 302 294 293 294 299 305 305 306 307 306 307 306 305 305 305 307 307 308 307 307 305 305 305 305 305 306 306 307 307 306 307 307 306 305 305 305 305
311 312 313 312 313 315 316 316 318 317 316 319 319 316 316 319 321 320 318 316 318 319 309 306 303 304 304 303 308 312 310 301 307 305 307 305 303 308 306 303 300 305 304 302 301 299 304 308 301 295 295 294 295 304 307 308 307 307 307 308 308 308 307 307 307 307 306 306 305 304 303 302 303 305 305 305 306 307 305 305 306 305 305 304 305 304 305
311 312 315 315 317 315 314 314 316 317 317 314 314 316 315 316 310 310 312 310 313 314 312 311 304 308 311 306 302 312 308 305 309 302 303 307 302 303 308 304 302 303 295 298 301 308 305 303 300 295 297 305 307 307 307 308 309 309 309 309 310 310 310 309 309 306 303 302 303 304 304 304 304 305 305 304 305 305 305 306 306 306 306 305 305 305 305
312 314 315 317 315 311 311 315 322 317 318 319 318 312 310 312 309 306 307 309 310 307 311 307 304 308 306 304 307 313 309 304 303 304 298 305 302 295 304 296 302 301 295 296 299 307 297 299 299 297 295 301 303 307 309 309 310 311 311 311 312 312 312 311 310 309 306 305 306 306 306 304 304 304 305 305 305 306 306 306 306 306 306 305 305 306 306
316 315 314 313 312 313 319 318 317 317 317 311 313 309 305 309 304 299 310 302 302 307 308 305 309 309 309 305 304 306 315 307 301 301 302 302 307 299 302 301 304 299 292 293 297 305 296 290 297 295 293 300 303 307 308 309 309 310 310 311 312 312 312 311 311 312 311 311 311 310 310 309 308 306 305 305 305 305 305 306 306 307 306 306 306 306 306
315 315 315 312 314 317 319 320 320 316 312 308 308 308 307 299 308 308 305 302 303 305 312 308 310 308 310 310 309 304 313 314 313 312 307 301 310 307 300 296 305 297 293 291 301 300 299 294 292 291 295 303 304 306 308 309 309 309 311 311 311 312 312 312 311 312 311 310 310 310 310 310 308 308 307 307 307 306 306 306 306 306 307 306 306 306 307
315 314 316 319 318 319 319 316 313 310 310 312 303 295 301 304 308 307 307 299 302 306 310 309 306 308 307 310 310 311 310 316 313 309 303 298 305 301 298 300 301 293 289 300 304 300 296 288 289 291 300 305 307 307 308 308 309 308 310 312 312 312 312 312 311 312 312 311 311 311 311 310 309 308 307 307 307 307 307 306 305 306 306 307 307 307 307
307 311 316 315 315 313 313 303 309 308 296 296 295 292 301 296 302 302 304 309 313 309 311 315 312 313 314 315 312 312 310 315 308 306 302 298 304 303 299 296 294 288 296 304 299 295 290 288 288 295 301 301 304 305 304 305 309 310 310 311 310 310 309 309 309 309 311 310 308 308 310 311 310 308 308 307 307 307 307 307 306 306 307 307 307 306 307
316 316 312 314 310 311 310 293 310 304 296 297 294 291 297 299 304 306 302 305 307 307 310 306 308 308 303 312 307 307 309 309 309 307 304 305 301 297 296 291 292 300 303 297 296 288 292 295 296 298 301 303 303 305 306 307 308 308 308 309 310 310 309 307 306 306 307 309 310 309 307 308 310 310 310 310 309 308 307 307 307 307 307 307 306 306 307
311 309 309 306 301 305 299 291 306 298 292 298 299 301 301 299 301 305 304 309 308 307 312 311 310 309 306 312 311 311 308 303 310 302 297 301 298 299 295 293 300 300 295 292 293 294 294 293 300 302 302 302 304 305 307 306 305 304 304 306 307 307 308 308 308 306 307 308 308 305 303 303 303 307 309 310 310 310 309 308 308 306 306 306 306 306 307
310 303 302 296 291 296 296 294 295 293 304 305 303 305 305 307 307 307 312 312 310 311 309 310 311 310 306 311 303 304 308 307 302 302 303 302 295 292 300 304 302 293 292 293 288 286 288 293 297 299 301 302 303 305 305 306 306 306 304 302 302 305 305 306 307 307 307 307 307 305 303 301 299 303 305 307 309 309 309 310 310 307 306 306 305 306 306
308 310 304 301 295 299 307 296 299 304 306 307 308 308 309 310 312 312 313 313 312 312 311 313 311 309 304 305 307 307 307 307 301 304 304 297 295 297 303 297 291 292 287 286 287 288 291 296 298 301 301 301 301 302 304 305 305 304 303 304 303 302 302 302 302 303 303 305 307 308 307 307 306 305 305 307 308 309 309 310 311 309 307 306 307 307 306
300 307 307 295 293 299 297 304 309 308 309 310 310 311 312 313 311 311 314 314 314 312 310 311 308 309 306 311 306 301 302 306 301 300 302 297 301 295 290 292 292 293 292 290 290 295 297 298 299 300 301 301 302 302 302 301 301 301 302 301 302 302 302 301 302 303 305 304 303 304 306 307 307 308 308 307 306 308 309 310 310 309 309 309 309 309 306
312 301 299 298 305 307 306 308 307 307 309 310 311 311 311 311 311 312 314 315 313 312 313 309 306 304 299 303 300 299 297 305 294 292 301 299 292 286 287 285 287 285 293 296 295 296 297 298 300 300 300 299 301 299 300 300 300 300 300 300 300 302 303 303 302 302 303 303 304 303 302 304 306 307 307 306 304 304 306 309 311 310 310 309 309 308 305
302 302 306 302 303 306 309 310 306 305 309 310 312 312 313 312 312 313 316 313 315 313 312 312 310 302 301 300 294 297 295 300 297 296 295 292 293 293 291 286 288 288 291 296 296 298 299 300 299 298 299 299 299 299 299 299 299 300 300 301 302 303 303 303 303 303 302 302 302 303 304 305 305 305 306 306 307 308 308 309 310 310 309 309 309 308 305
309 303 305 312 306 307 308 304 303 304 306 308 311 310 313 311 312 312 315 315 313 311 308 302 301 300 295 294 293 289 292 300 297 294 293 292 296 293 290 287 292 295 296 298 298 298 299 299 298 297 298 298 298 299 299 299 299 299 299 300 301 301 302 302 302 301 301 302 303 303 303 303 304 304 306 307 307 307 306 307 309 309 308 308 308 307 303
300 298 305 311 312 311 311 311 311 309 310 311 309 313 314 312 314 317 318 315 312 305 301 305 303 296 292 291 294 297 300 298 294 295 292 295 298 293 294 294 296 297 297 297 298 299 299 300 299 298 298 297 298 298 298 299 298 299 299 299 299 300 300 300 300 300 301 301 302 303 304 305 306 306 306 306 306 305 304 304 306 307 307 307 308 307 304
Wind_Speed
20 21 20 21 21 22 23 24 24 23 24 9 6 6 1 5 5 3 8 8 8 1 6 4 5 6 5 3 5 2 4 7 6 6 7 4 5 6 7 7 3 6 3 5 6 5 5 4 6 8 9 9 8 6 6 5 5 6 5 4 4 6 2 5 6 5 6 4 2 1 1 2 6 3 3 3 2 3 6 6 5 9 7 7 6 5 7
20 20 20 20 21 21 23 23 23 21 16 6 7 4 4 4 5 3 8 7 4 7 4 4 6 6 7 6 8 7 9 10 9 9 10 6 5 7 5 7 9 7 4 3 5 2 3 4 5 5 3 6 5 6 7 7 3 7 5 5 5 4 2 4 6 5 6 6 6 4 1 4 2 3 4 5 3 2 4 6 4 7 3 7 10 8 9
19 20 20 20 21 21 22 23 23 21 16 6 5 3 2 1 2 5 6 6 4 4 5 3 5 5 6 5 6 4 5 7 9 9 9 7 6 2 7 7 3 6 3 5 3 4 4 7 3 5 5 7 3 7 8 8 7 8 7 7 4 3 4 3 6 8 9 9 9 7 7 4 3 3 3 3 4 3 4 8 8 7 2 4 8 7 12
19 20 20 20 21 22 23 23 23 22 17 8 5 3 4 3 1 3 6 5 7 7 3 5 3 4 3 5 6 4 6 6 7 7 10 9 9 8 5 4 3 5 4 6 5 6 4 2 6 5 6 6 4 6 5 9 8 7 7 6 3 2 2 4 5 7 6 7 6 4 4 3 3 4 3 5 3 3 4 4 6 9 7 4 6 14 15
19 20 20 20 21 21 23 24 24 23 17 9 4 2 3 2 3 4 3 3 6 6 4 4 3 3 4 2 3 5 5 3 6 9 3 6 6 7 7 4 1 3 2 6 7 6 9 9 8 5 7 4 4 3 5 6 9 5 2 5 2 2 3 3 3 5 6 6 7 6 4 2 3 1 3 3 4 2 3 4 2 5 8 6 8 16 16
20 22 21 20 20 21 23 24 25 24 20 7 5 3 4 2 2 2 3 3 2 1 5 6 3 3 1 5 1 3 4 4 4 5 7 3 4 2 4 6 7 6 6 1 4 4 6 5 6 5 5 6 5 5 4 5 5 4 4 4 3 3 2 3 1 5 4 4 6 5 3 2 2 2 1 3 3 3 2 5 4 4 6 8 13 13 13
21 21 21 20 19 20 23 25 26 25 24 11 6 3 5 5 4 4 3 1 4 5 4 4 3 6 5 4 3 4 4 6 5 5 3 4 5 6 4 6 6 5 3 2 5 3 4 5 3 2 4 2 3 3 5 4 2 2 2 4 3 3 2 3 2 5 4 3 3 2 1 3 2 2 2 1 2 4 5 6 6 8 11 15 13 12 13
20 20 21 20 19 20 21 24 26 26 26 13 5 7 3 4 2 5 3 5 4 3 1 2 1 4 2 0 5 3 3 5 3 4 5 2 5 3 6 7 6 5 4 2 5 6 8 4 6 3 2 4 2 2 4 3 3 2 2 1 4 7 4 4 6 5 4 3 3 3 1 1 4 3 3 4 4 4 5 8 9 12 12 11 13 13 9
19 19 20 19 18 19 20 22 25 27 24 4 7 5 6 3 3 3 2 3 4 2 2 1 1 3 3 3 4 3 5 6 6 7 6 5 5 4 7 5 6 6 7 8 8 7 7 7 7 4 4 2 3 4 4 2 1 1 1 1 2 5 4 4 5 5 5 4 3 3 2 2 4 4 6 6 7 6 6 5 5 4 10 12 12 10 8
18 18 19 19 17 18 18 19 22 25 25 4 4 6 1 1 2 2 4 3 2 0 2 2 3 5 5 4 3 2 5 4 1 5 5 6 7 5 4 3 2 6 5 7 7 5 5 5 4 4 3 2 2 2 2 2 2 1 1 1 2 1 3 5 6 7 4 6 3 1 4 6 6 8 7 6 3 3 5 6 2 3 7 9 9 5 8
16 17 17 17 17 17 17 18 19 21 14 8 6 5 5 4 3 1 4 2 3 2 1 5 4 4 3 3 4 2 4 2 2 4 4 2 6 4 3 2 2 5 5 5 5 4 4 4 3 0 1 1 1 1 2 1 2 2 2 2 2 3 5 4 3 5 4 6 2 3 6 8 3 8 8 3 6 6 7 7 6 4 4 3 6 9 7
15 15 16 16 15 16 16 16 16 18 15 5 4 4 4 4 4 3 3 2 3 0 3 5 4 4 3 3 2 3 3 2 3 2 6 4 5 3 2 3 4 3 4 1 1 1 1 1 2 2 1 1 1 2 3 3 3 4 3 4 1 4 4 2 3 5 4 5 4 6 8 4 9 5 6 3 3 1 4 8 4 4 4 6 7 6 6
13 13 14 15 15 15 14 15 15 15 16 8 5 5 5 3 4 4 4 2 4 1 2 5 4 4 3 4 5 5 4 4 4 4 6 5 5 3 4 4 5 6 2 2 1 3 4 4 4 2 3 3 2 3 3 3 3 4 4 3 5 4 6 3 5 3 3 4 6 6 3 8 5 6 5 5 4 6 8 6 4 1 3 6 6 6 5
12 12 12 13 13 14 14 14 14 15 16 13 4 5 4 5 4 3 3 2 4 3 3 5 4 4 3 3 4 5 5 5 4 3 5 2 4 4 4 4 5 2 1 0 2 5 4 5 5 5 5 4 4 4 4 2 1 2 5 5 4 4 1 4 4 3 5 5 7 4 6 5 6 6 6 7 7 9 7 4 9 5 3 4 7 6 4
12 12 11 11 12 12 13 13 13 13 15 15 5 4 5 5 4 3 2 4 2 3 3 2 4 4 3 4 3 4 4 4 5 4 3 2 2 3 4 3 1 0 2 4 3 4 2 2 3 4 4 5 3 4 4 4 4 1 2 4 5 3 6 3 6 5 6 4 6 6 5 7 8 7 7 3 3 2 1 5 8 7 5 2 4 6 6
11 11 11 10 10 11 12 12 11 12 13 17 4 3 4 5 3 3 4 4 2 2 3 3 2 4 3 3 3 4 1 4 2 4 5 4 3 4 3 1 1 2 3 2 2 2 2 4 2 4 3 4 4 3 3 4 4 3 1 4 6 5 5 4 6 5 6 7 7 6 5 2 7 11 8 7 4 4 2 5 6 10 8 5 5 3 4
11 11 10 10 9 10 10 11 11 10 10 13 6 3 4 5 4 4 4 2 2 4 3 2 2 2 2 4 4 5 4 2 4 4 4 5 5 3 4 2 2 3 2 4 3 3 4 4 3 3 3 2 4 1 4 3 4 5 4 4 7 7 7 7 7 8 8 7 7 5 5 2 8 10 8 8 5 3 6 7 6 10 7 7 4 4 3
10 10 10 10 9 9 9 9 11 10 10 12 7 3 3 4 4 4 3 3 4 2 3 3 4 3 1 3 1 5 1 0 2 1 3 5 4 5 4 3 4 3 3 5 2 4 2 3 4 4 2 3 2 0 2 4 6 5 6 7 7 7 7 7 8 8 6 6 8 7 4 7 7 9 9 8 4 4 7 7 8 7 8 4 4 2 2
9 9 10 9 9 8 8 9 9 11 10 11 7 4 2 4 5 5 4 2 3 2 5 2 2 4 3 1 3 2 2 4 3 4 2 4 2 3 0 0 5 2 4 3 3 4 4 2 2 3 2 5 4 2 2 4 5 4 4 5 5 7 7 7 8 9 9 8 9 8 2 7 9 8 8 7 7 7 5 7 5 7 6 4 1 1 1
8 8 9 9 8 8 7 7 9 9 10 10 9 2 3 3 3 6 5 4 2 4 2 3 4 4 3 3 2 4 4 5 3 5 3 2 5 5 4 5 5 4 3 3 5 1 4 3 2 2 4 5 3 2 4 2 4 3 4 6 6 6 7 8 8 7 6 6 9 6 9 5 6 12 6 4 8 4 6 6 4 3 3 1 0 2 2
8 7 8 8 8 7 7 7 7 8 9 9 9 3 1 3 3 4 4 4 4 4 4 3 2 4 3 4 3 3 4 6 1 4 0 3 2 4 4 2 3 3 3 3 4 3 2 3 4 2 3 2 5 3 3 4 6 4 5 5 8 1 7 6 7 6 6 7 9 5 3 9 8 10 4 9 1 6 3 1 5 2 1 1 1 1 0
8 7 7 7 7 7 6 6 6 6 8 8 10 4 3 3 1 3 3 4 4 3 4 3 2 3 2 3 3 2 2 1 3 4 4 2 4 4 3 0 0 3 1 3 3 3 3 1 1 3 4 3 3 4 1 4 4 7 5 2 5 6 8 5 4 4 7 3 2 7 6 8 7 4 5 7 7 4 3 1 2 2 3 1 2 1 1
8 7 7 7 7 6 6 5 6 6 6 8 9 2 3 2 1 3 4 4 4 4 2 4 4 5 5 6 6 5 4 3 3 3 3 5 3 4 4 4 3 1 1 2 5 4 2 2 3 2 2 4 4 5 6 6 2 6 6 11 6 3 3 2 6 4 4 5 2 4 6 6 7 5 4 6 6 4 4 3 3 2 1 1 2 1 2
7 6 6 6 6 6 6 4 5 5 5 5 6 3 1 2 3 5 3 4 3 4 3 2 5 3 3 4 3 4 4 6 6 5 3 4 6 2 3 3 2 3 4 2 3 5 3 3 2 1 6 2 3 6 5 5 7 5 5 7 7 6 4 5 6 1 1 4 9 8 7 7 8 7 6 4 5 6 4 4 2 2 2 2 1 3 3
7 6 6 6 6 6 5 4 4 4 4 6 5 1 2 2 0 3 4 4 1 3 3 5 2 6 4 2 1 3 3 1 3 6 6 6 7 6 4 4 2 4 2 1 2 5 3 6 4 5 7 3 3 5 1 5 3 4 5 5 5 7 8 7 9 8 8 4 4 3 3 6 7 6 6 6 7 6 5 2 2 1 2 2 2 2 5
6 6 6 6 5 5 5 4 4 3 4 5 5 2 2 2 1 1 3 3 2 3 4 1 5 3 1 3 2 1 2 3 4 6 7 7 8 8 3 4 2 2 2 3 4 6 5 6 6 5 6 3 2 6 4 1 3 2 6 3 1 6 9 6 6 8 8 7 4 3 4 4 7 7 5 3 6 7 7 5 4 4 3 3 3 4 4
6 6 6 6 5 4 4 3 2 3 2 5 4 0 1 1 1 2 3 3 5 3 5 2 4 4 1 1 3 1 3 4 5 6 7 8 9 7 6 5 4 4 5 4 5 6 5 6 5 7 6 3 2 5 3 4 6 6 7 6 6 5 8 5 4 8 8 8 7 10 6 7 10 12 9 7 7 7 7 6 5 5 4 3 3 3 4
6 6 6 5 4 3 3 3 2 2 3 5 2 1 0 1 1 1 1 3 4 5 6 5 3 4 3 4 2 1 2 2 4 6 7 7 8 7 7 7 6 6 5 5 3 6 6 7 8 3 2 3 4 6 5 4 4 7 9 7 7 8 8 7 9 8 6 3 3 7 6 5 4 7 9 9 8 7 7 6 5 4 3 4 3 4 4
6 6 5 4 3 3 3 3 1 2 3 7 1 1 2 1 1 2 2 1 3 4 4 4 3 4 2 5 1 1 1 2 3 4 5 5 6 6 6 4 4 1 3 4 1 3 4 5 5 4 1 4 2 3 3 7 7 9 5 5 8 8 6 8 10 10 12 4 3 4 5 7 5 8 10 9 8 7 7 5 4 3 3 2 5 3 5
7 5 4 3 3 2 3 3 2 4 5 3 2 4 4 4 2 3 2 1 2 2 3 3 2 4 1 2 2 2 2 1 1 2 3 4 4 3 2 4 3 3 3 1 2 3 2 2 2 0 1 1 2 4 3 5 7 6 7 1 3 6 7 8 8 10 9 6 7 8 7 6 5 8 9 8 8 7 5 5 5 5 4 4 3 4 5
6 5 3 3 2 2 2 2 2 3 5 3 3 4 4 1 4 3 4 3 1 3 2 2 1 2 3 2 1 3 3 2 4 4 4 3 2 2 3 3 3 4 4 3 2 2 1 4 3 2 1 2 3 3 3 4 6 5 5 6 8 9 8 8 7 7 8 6 5 6 6 6 6 7 8 8 8 7 6 4 4 2 2 3 4 4 5
5 5 4 3 2 3 3 3 3 5 3 3 3 4 4 4 3 4 3 3 2 4 3 1 3 3 1 4 2 2 1 2 3 4 3 1 2 1 2 4 2 4 3 3 3 3 5 6 7 7 5 6 6 3 3 4 7 7 4 5 5 6 5 6 7 7 6 6 7 8 10 9 9 9 7 9 8 8 7 6 5 4 6 5 4 4 5
5 4 5 4 2 3 3 3 4 5 0 4 5 5 3 3 3 3 6 2 4 1 1 2 2 1 2 4 3 3 2 3 4 2 2 0 1 2 3 2 2 3 5 3 4 4 2 3 2 5 4 8 4 3 5 7 10 9 8 8 7 7 7 7 7 7 7 7 8 11 11 12 10 8 4 8 9 9 8 6 6 5 5 5 6 6 5
3 6 3 2 2 4 4 5 4 4 7 5 2 4 5 8 4 5 2 2 3 1 2 2 2 1 1 4 4 3 4 4 1 2 3 5 2 3 2 2 4 3 5 4 2 4 3 2 3 0 3 4 4 3 5 7 6 7 7 7 6 6 6 7 7 8 8 7 8 9 8 8 9 9 8 8 8 8 7 6 6 6 6 6 5 5 4
6 3 3 4 4 3 6 8 5 5 1 4 4 3 4 5 4 6 3 2 4 2 1 2 2 3 1 1 1 3 2 5 2 4 5 3 2 2 1 4 2 3 3 3 4 3 3 3 4 3 4 2 3 4 5 7 7 6 6 6 6 6 5 7 8 8 8 7 8 6 5 6 8 10 10 9 9 9 9 8 8 7 6 5 5 4 5
4 2 2 3 4 5 4 6 3 2 2 3 4 4 5 6 5 4 1 2 4 3 2 2 2 2 3 4 4 3 1 4 1 0 2 3 2 2 2 2 4 2 1 3 1 1 2 2 2 2 3 2 4 4 4 5 7 8 7 8 7 6 7 8 6 5 5 6 8 7 5 5 7 9 9 9 9 9 9 8 8 7 6 5 5 5 4
4 2 3 5 4 4 2 3 3 4 4 4 7 9 8 7 4 1 2 3 4 2 3 2 2 2 3 4 2 2 3 3 2 2 3 2 2 1 1 3 2 3 3 2 2 3 1 2 3 3 3 5 3 2 4 5 7 8 8 7 6 5 6 6 5 5 7 7 8 8 8 9 10 8 9 9 9 9 9 9 8 7 8 7 6 5 4
4 7 3 3 4 3 2 3 3 4 5 8 6 5 3 3 1 1 2 3 3 3 3 1 2 1 1 3 2 3 3 1 1 4 2 2 3 1 1 3 3 2 3 1 1 2 2 3 4 3 5 5 5 6 5 5 5 5 6 5 5 5 4 4 5 7 8 9 11 12 12 13 12 11 11 11 11 10 9 8 7 6 6 6 5 5 5
5 2 3 3 3 2 3 4 5 3 3 2 3 3 2 1 2 3 1 1 1 2 2 2 2 1 2 3 2 3 3 5 5 2 3 1 3 2 2 2 2 3 2 3 2 3 4 3 4 3 4 2 3 2 1 2 3 3 3 3 3 3 3 4 6 8 9 7 7 10 11 11 12 12 11 11 9 9 8 7 7 6 6 6 5 6 6
2 2 0 0 1 4 4 5 5 4 2 3 2 3 1 1 2 0 0 1 2 2 2 2 1 2 3 5 6 1 3 4 6 4 4 2 1 3 1 2 1 3 3 3 2 4 3 3 1 2 3 3 3 3 1 2 2 2 1 1 2 3 4 5 5 7 8 8 7 7 10 10 10 10 10 10 10 9 8 8 6 6 7 7 6 6 7
1 0 2 2 4 2 2 2 2 2 2 2 2 1 1 1 2 1 2 3 1 2 2 2 2 2 2 2 2 3 4 1 1 2 3 2 2 3 3 2 2 4 4 1 3 1 2 2 2 3 2 3 2 2 2 2 3 3 2 2 2 3 4 5 6 7 8 9 9 9 9 11 11 10 9 10 9 9 8 7 7 7 7 7 7 8 5
3 3 3 1 1 1 2 2 2 3 3 2 1 1 2 2 1 3 3 2 3 1 4 2 1 3 2 1 1 3 1 1 2 1 2 2 2 3 3 1 1 3 2 3 2 1 1 2 2 3 2 3 2 3 4 4 4 5 4 4 3 3 4 5 6 7 8 10 10 10 10 11 12 11 10 9 9 9 8 7 7 7 7 6 6 6 5
4 4 1 2 3 2 1 0 2 2 0 1 0 1 2 1 1 3 2 2 1 2 3 2 1 1 3 1 2 1 4 1 2 1 2 1 2 2 3 1 1 3 1 2 3 2 4 3 4 3 8 6 7 7 8 9 7 6 5 3 4 4 4 5 6 7 7 5 7 11 10 11 11 10 9 9 9 9 8 7 7 6 6 6 6 6 6
1 1 3 2 2 2 1 1 2 1 1 1 1 1 2 3 3 2 3 2 1 2 1 4 1 2 4 4 3 2 3 2 2 2 2 1 2 2 2 2 3 2 1 4 2 4 5 5 3 4 2 4 6 6 3 4 6 6 6 5 5 5 6 7 7 7 8 7 7 7 6 10 8 9 9 8 9 10 8 7 7 6 6 6 6 6 6
2 1 1 1 0 1 0 1 2 1 3 2 3 3 2 4 3 2 3 4 2 3 2 2 4 1 4 2 2 2 2 1 3 3 2 2 4 2 2 4 2 1 3 6 4 4 4 4 4 6 8 7 8 8 6 5 5 6 8 9 7 7 7 6 6 6 7 7 3 3 3 5 6 7 5 6 7 8 8 8 7 7 6 7 7 7 6
3 1 1 2 2 2 2 0 1 2 3 2 2 2 3 2 3 3 2 1 3 2 3 3 3 3 5 2 4 2 2 2 2 2 2 2 4 4 0 1 2 5 5 5 4 6 4 3 5 6 7 7 7 8 8 6 6 5 5 6 7 8 9 9 9 8 7 6 4 5 6 7 8 7 6 6 5 6 7 7 7 8 7 7 7 7 6
1 0 1 1 2 2 3 2 3 2 2 1 1 2 3 3 3 4 2 2 3 2 3 2 3 3 5 3 2 2 2 2 4 1 2 5 4 2 1 4 5 4 4 4 5 5 4 5 5 5 6 7 8 8 7 7 6 7 8 7 8 9 9 7 8 8 10 11 8 7 7 7 9 10 9 7 6 4 6 7 7 7 6 6 5 6 6
0 0 1 2 2 2 3 4 1 1 2 2 2 2 2 2 3 2 1 2 2 2 3 3 3 2 3 2 3 4 2 1 4 2 2 4 3 3 2 3 4 4 4 6 4 3 5 6 5 7 7 8 8 8 8 9 9 10 10 9 9 10 10 9 9 9 8 8 9 9 6 6 6 7 6 3 3 5 8 8 6 6 5 5 6 6 6
2 0 1 1 2 2 2 1 2 4 1 1 1 2 2 3 2 2 1 1 2 2 2 3 4 5 2 2 4 3 3 2 3 1 2 3 3 2 3 5 8 6 5 5 5 5 5 6 6 7 7 8 8 8 8 8 9 10 10 9 9 8 7 7 8 7 7 8 6 6 7 7 4 4 4 6 7 9 11 9 8 7 6 6 6 6 6
1 1 1 2 4 5 4 2 3 4 1 1 3 2 1 2 2 1 2 2 1 1 1 1 1 3 3 4 2 3 2 1 4 2 5 6 5 5 6 7 5 5 6 5 5 4 5 6 6 6 7 8 8 8 9 9 10 10 9 9 8 8 8 8 8 8 7 6 6 7 7 6 7 7 5 6 7 5 6 9 9 8 7 7 7 6 5
1 1 3 4 6 3 1 3 2 4 3 3 5 5 2 2 2 1 2 1 2 3 2 4 3 2 2 1 2 2 2 3 6 5 5 6 4 5 5 5 6 6 5 4 5 5 5 5 6 7 7 8 8 9 9 10 10 10 10 9 9 8 8 9 9 9 9 7 7 7 7 6 5 6 5 5 6 6 8 9 9 8 8 8 7 6 5
1 2 3 3 5 6 6 5 3 4 2 2 5 4 3 3 1 0 1 3 3 3 4 2 2 2 1 2 4 4 4 3 4 6 7 4 4 6 5 5 5 5 5 6 6 5 5 6 5 7 8 8 9 10 10 10 10 10 10 10 9 9 9 9 9 9 9 8 8 7 7 6 7 6 5 6 6 6 7 7 8 9 8 7 7 6 6
Wind_Direction
346 342 341 342 344 347 347 347 347 350 343 341 6 295 324 34 49 32 348 342 306 340 88 89 85 74 88 145 65 32 50 21 23 27 4 59 14 62 48 31 85 48 62 105 101 88 78 32 88 107 95 73 41 11 342 328 298 287 121 195 75 290 223 120 92 103 121 144 93 71 315 276 219 107 12 318 283 334 314 333 330 213 171 206 164 147 131
345 342 342 342 345 348 348 347 347 348 3 323 305 286 49 40 28 45 24 337 285 270 86 105 88 98 108 98 89 66 51 26 34 37 40 25 45 53 63 74 37 86 56 95 103 342 139 81 117 109 88 94 17 20 10 337 34 336 55 326 46 264 109 279 146 170 169 174 180 182 181 237 38 39 53 2 338 279 301 291 280 252 164 292 212 163 155
345 344 343 343 345 348 348 348 345 347 349 333 293 339 2 251 122 47 42 31 351 59 20 53 111 101 99 79 75 96 70 31 32 34 45 38 35 73 63 34 62 79 53 86 77 41 15 129 36 93 98 96 54 44 19 22 59 41 31 349 319 313 52 295 224 198 194 194 200 193 177 156 102 73 43 33 353 330 235 212 205 236 156 264 241 130 120
347 347 344 344 346 348 349 347 345 344 346 323 269 336 265 351 38 55 75 33 87 85 62 31 55 107 92 92 53 59 100 87 48 11 65 32 59 52 84 68 67 96 132 90 79 86 56 130 144 163 125 124 82 30 41 44 50 41 23 338 307 68 53 359 345 337 7 42 44 32 351 153 192 91 26 32 357 339 266 330 217 214 154 125 81 133 134
349 349 346 346 347 349 349 348 345 343 344 338 297 331 4 45 26 356 60 123 75 83 43 56 355 45 338 38 359 65 48 73 77 358 76 34 39 66 33 30 211 73 112 97 90 71 90 89 122 109 126 81 85 51 29 73 49 333 344 2 305 165 165 76 34 40 46 67 63 51 2 103 89 355 64 35 15 2 318 258 219 48 156 116 130 140 141
350 350 349 348 348 351 351 348 345 342 341 329 275 35 347 75 65 13 15 316 47 40 76 11 54 57 1 84 224 67 77 56 68 86 49 32 17 313 89 66 54 56 53 96 111 102 97 118 113 115 93 142 139 135 64 51 33 308 68 360 340 303 218 99 176 99 81 59 60 50 70 71 66 51 51 61 38 52 82 62 56 350 266 161 153 158 135
351 350 351 351 350 353 355 349 346 345 337 326 284 70 61 58 88 51 307 325 50 40 41 7 33 64 36 89 29 80 60 83 54 9 57 24 52 343 99 69 62 62 46 348 106 99 179 124 83 98 139 82 167 151 156 91 28 47 58 46 360 275 82 128 146 128 118 98 79 61 99 137 158 124 138 110 100 92 88 95 88 85 88 121 153 144 122
351 351 352 353 351 356 359 352 348 345 340 317 54 25 5 54 349 96 98 74 70 54 67 30 341 86 344 146 53 35 46 72 88 54 354 88 54 20 84 74 66 69 82 96 108 72 30 61 148 104 126 152 289 63 4 41 113 354 61 308 104 288 117 202 170 168 130 119 160 163 90 213 165 158 158 164 150 123 99 101 100 107 109 113 133 127 129
352 351 354 356 355 356 1 358 353 345 343 54 41 62 13 41 13 334 305 93 37 16 49 71 58 106 74 89 97 72 69 73 62 68 26 38 81 60 76 71 79 68 83 84 84 60 61 59 72 91 353 26 68 314 116 312 331 49 116 179 97 273 126 200 209 218 156 162 186 170 196 207 207 178 175 171 170 164 166 150 120 150 136 141 144 157 157
353 353 355 357 358 357 2 4 357 352 332 18 17 58 22 244 140 254 290 85 294 336 129 140 228 75 46 27 75 354 94 91 275 108 49 51 48 58 64 57 87 93 83 76 62 41 40 49 41 33 51 31 76 48 51 346 346 311 57 264 240 266 157 194 191 230 157 135 189 169 210 210 215 204 178 163 137 99 95 89 120 120 141 157 190 159 117
355 354 355 358 1 359 3 6 3 357 352 32 12 36 10 355 13 263 258 124 98 32 6 72 43 56 88 97 114 84 103 110 13 320 117 98 76 43 30 54 44 72 63 41 26 9 21 20 15 40 109 66 120 162 173 198 262 340 300 197 180 220 223 208 209 242 150 152 160 216 216 218 183 68 98 137 163 164 167 141 127 109 249 48 47 114 125
357 356 355 360 2 1 1 6 5 4 359 358 325 24 14 317 269 274 298 81 86 43 38 53 51 128 122 99 55 92 89 58 96 325 107 82 88 99 94 79 296 98 53 29 345 51 17 167 167 141 79 103 167 187 230 233 195 207 234 277 162 194 208 213 178 240 166 154 189 206 217 207 85 122 100 94 83 161 132 100 99 103 100 113 132 116 122
357 359 357 360 3 3 1 2 6 4 1 343 356 28 15 332 308 351 340 354 85 55 106 105 108 100 101 111 99 85 74 105 99 94 100 122 121 106 36 46 51 66 334 4 174 198 196 129 116 108 106 134 118 143 172 182 202 216 234 216 252 174 209 146 209 221 104 179 200 203 179 82 127 104 138 108 174 129 123 118 103 128 141 129 132 139 137
355 360 357 360 4 4 4 3 1 3 359 348 359 23 4 343 336 354 348 335 100 65 72 128 142 125 137 105 109 122 137 111 103 117 118 102 119 109 103 47 52 26 350 310 161 179 151 179 153 173 144 172 156 180 110 136 81 216 213 209 234 267 252 216 191 207 219 206 204 211 77 194 146 165 166 183 168 174 192 193 156 153 160 197 147 148 153
351 358 356 360 5 4 6 3 1 359 358 348 313 15 18 6 347 334 325 293 99 106 255 313 104 125 139 139 185 162 177 136 177 128 97 143 137 81 70 86 68 62 165 231 152 237 262 201 193 176 152 201 194 151 157 175 130 109 227 224 221 225 252 167 249 183 248 242 219 211 209 243 200 161 137 110 87 360 97 306 141 169 164 212 166 170 166
350 354 350 359 5 5 4 5 2 358 1 344 302 24 42 2 310 292 317 338 318 203 97 54 92 159 169 149 196 268 177 193 132 143 168 173 140 147 133 115 94 222 181 242 300 243 202 232 212 209 202 175 84 148 192 152 162 126 178 211 213 210 245 268 235 213 189 235 248 221 225 205 72 133 142 140 142 145 134 239 218 156 167 159 166 145 138
347 348 346 354 6 3 1 4 0 1 359 360 340 351 34 3 345 338 316 290 283 42 92 136 158 172 189 149 182 214 219 226 180 216 189 177 174 159 150 164 152 234 239 253 192 218 193 228 259 260 80 79 182 196 104 214 176 158 151 207 203 203 206 207 226 247 217 220 226 237 234 181 133 131 140 146 149 161 231 233 198 137 148 139 143 138 130
342 344 343 351 2 0 358 1 2 358 0 353 327 342 36 12 349 306 279 326 320 110 127 175 206 205 226 14 22 70 177 192 226 270 297 98 168 193 159 200 189 136 263 254 215 228 251 228 212 223 153 83 345 230 226 159 202 179 185 189 185 198 210 210 229 222 222 222 239 247 192 112 135 138 134 135 158 213 218 226 108 138 128 118 122 116 100
341 342 342 349 356 355 355 358 1 359 1 356 326 253 103 5 349 317 297 291 314 354 105 130 302 311 35 64 2 71 6 344 331 248 179 191 156 81 241 68 321 212 187 245 239 241 229 163 321 284 218 149 201 225 72 202 195 162 195 194 214 209 214 215 224 228 225 209 235 231 239 78 127 133 136 140 162 198 217 77 124 125 130 119 75 10 53
339 341 343 347 349 349 347 355 358 358 356 360 332 326 43 6 12 356 348 348 338 304 140 172 203 224 173 233 181 193 160 205 225 285 257 297 111 187 189 208 181 260 193 240 234 355 266 214 142 195 232 154 173 5 235 203 3 172 206 203 237 202 217 219 204 230 237 232 233 229 232 138 187 135 150 176 236 67 102 124 96 108 75 74 105 300 23
334 338 344 346 343 341 338 347 357 358 352 357 334 299 215 107 9 12 348 327 318 292 125 101 235 263 221 230 264 317 274 328 104 242 104 22 105 231 253 326 99 215 225 220 250 195 253 216 166 219 15 293 128 215 237 180 183 183 245 214 240 1 234 218 220 215 222 212 225 236 41 118 162 169 221 179 88 99 101 110 163 133 181 182 238 170 73
330 338 341 343 337 330 332 342 352 359 348 354 322 286 264 88 33 17 336 304 278 306 6 36 356 293 292 301 323 301 305 323 29 344 303 195 170 273 354 271 218 275 346 288 216 184 207 232 54 211 190 163 156 229 176 209 212 143 183 229 228 175 239 342 292 151 244 283 26 89 125 131 153 183 79 93 110 117 117 34 40 189 144 151 254 207 179
327 336 338 336 331 324 324 337 348 357 351 350 317 303 328 10 17 349 288 270 225 247 269 235 218 241 246 251 249 260 262 280 285 252 279 286 213 210 245 258 231 29 304 269 292 312 354 218 232 311 256 210 211 180 195 255 279 148 198 200 258 8 311 337 273 252 281 270 190 121 120 150 150 156 119 125 130 135 159 159 190 142 77 161 290 330 274
328 332 331 328 324 322 314 333 341 353 350 351 323 344 355 1 334 306 237 252 302 306 183 202 217 168 138 135 156 171 216 224 235 250 258 284 274 221 202 237 41 205 241 245 338 293 293 267 329 309 259 152 196 233 221 205 233 199 238 185 213 222 201 224 238 200 21 231 184 198 190 163 179 160 148 141 149 159 167 160 200 132 172 208 216 274 285
327 327 321 317 319 317 316 322 333 346 352 345 300 149 263 223 317 320 308 311 293 311 301 152 124 69 85 63 224 228 216 237 187 215 213 220 247 271 312 59 305 305 303 169 188 241 212 245 216 216 243 147 229 250 188 285 175 175 233 222 188 196 184 227 232 240 223 274 107 180 200 192 191 190 177 187 168 162 164 169 140 160 174 242 272 268 256
323 319 314 309 314 315 310 311 321 342 348 4 319 333 314 10 9 282 274 255 255 264 281 295 112 157 130 243 199 3 81 216 210 203 221 227 234 257 274 163 202 179 241 223 224 243 243 247 257 262 254 185 217 268 250 332 354 133 256 284 1 95 146 225 196 225 231 237 200 173 146 194 193 189 210 195 169 169 170 174 178 188 210 214 230 237 289
321 318 313 308 307 312 302 307 313 321 337 275 261 33 283 313 286 300 334 346 299 208 223 290 93 131 340 36 84 177 198 226 217 222 219 222 233 232 233 240 232 194 225 233 234 257 245 255 248 242 221 275 187 256 283 218 244 245 240 210 148 193 225 213 225 237 241 247 229 179 209 214 198 200 195 183 159 168 170 178 192 200 210 219 239 261 256
317 316 313 311 301 290 298 301 315 282 237 265 261 276 253 268 149 234 294 310 331 333 330 316 306 49 73 118 117 178 142 209 238 232 234 225 225 233 237 235 228 241 233 227 229 228 237 234 232 229 274 172 227 229 232 287 272 255 252 241 193 232 249 245 238 242 258 341 325 173 229 293 340 161 170 164 164 171 181 186 199 196 199 212 251 266 270
319 320 317 310 307 287 261 267 287 259 272 278 236 198 160 160 215 198 253 298 318 309 284 285 277 233 217 72 147 131 100 280 242 242 235 221 214 220 228 234 234 206 67 62 35 319 282 280 354 300 200 7 292 242 200 236 223 247 273 272 212 238 264 256 257 269 273 256 172 206 229 247 167 161 158 167 169 179 187 184 190 205 199 215 251 269 297
330 327 328 320 303 274 259 230 234 284 297 252 203 222 200 124 144 196 155 288 347 315 292 298 204 89 126 174 123 17 35 78 142 171 204 197 187 185 145 161 171 179 208 198 162 224 213 255 215 302 129 181 352 347 275 267 262 261 103 169 300 271 252 256 261 257 264 285 269 249 234 238 177 167 166 166 168 182 185 186 195 192 209 246 273 282 261
341 333 332 331 309 274 261 268 248 265 267 241 248 243 250 241 112 196 164 205 28 300 335 273 357 63 165 94 315 15 35 75 103 94 91 78 97 151 176 200 180 183 191 151 144 223 159 215 151 193 77 201 190 225 261 264 267 284 278 273 264 256 261 257 250 252 264 259 250 239 226 204 183 171 171 170 169 179 183 188 163 199 279 283 265 264 277
339 342 326 311 290 263 245 239 215 226 241 250 301 356 27 33 59 99 143 221 263 263 282 283 199 175 82 149 112 30 17 129 152 143 119 172 135 146 183 230 236 189 213 217 221 235 240 236 216 198 186 173 181 212 204 236 253 253 239 202 240 258 260 259 254 255 248 243 228 218 213 199 192 194 189 179 182 184 193 195 206 201 161 219 249 261 261
345 322 316 303 241 216 207 220 210 242 279 348 340 254 310 329 345 303 167 200 235 329 313 285 343 47 234 84 125 117 25 215 187 222 167 64 242 222 231 175 235 224 160 203 188 225 239 244 219 238 187 152 201 216 228 234 244 268 286 285 278 264 256 258 261 259 247 231 221 223 215 207 194 201 211 183 193 188 199 205 203 199 221 227 232 236 245
317 327 349 63 139 170 167 179 199 264 270 236 190 105 121 175 206 302 316 229 305 359 287 337 326 321 57 143 215 106 297 314 313 351 300 110 36 262 281 238 166 242 164 215 136 242 191 245 247 26 80 202 216 270 258 259 268 279 281 284 291 287 267 259 253 245 232 225 217 226 234 209 196 201 189 179 185 192 197 204 207 216 224 235 238 239 249
313 310 90 106 110 176 187 201 215 214 73 69 77 97 89 170 283 139 221 325 267 174 205 86 327 312 310 204 336 93 331 279 325 52 317 71 56 315 4 269 145 243 137 228 235 255 256 180 149 187 236 144 206 241 250 273 290 294 288 278 272 274 267 254 245 243 229 213 204 185 175 188 189 191 198 197 202 197 201 206 209 216 228 231 240 249 245
313 157 163 203 224 224 225 229 257 245 109 45 41 93 109 159 182 168 261 304 309 340 357 49 271 336 333 327 8 85 298 256 89 347 35 331 186 116 298 314 251 155 148 210 265 206 261 41 251 244 134 189 240 241 266 292 301 304 305 295 288 265 261 261 264 230 215 207 202 183 178 199 220 215 208 208 208 205 210 215 209 217 226 241 246 243 241
292 289 220 238 241 230 184 48 53 20 37 52 80 106 152 159 106 150 253 251 211 265 305 333 291 353 338 343 339 69 318 321 81 260 161 256 338 93 241 233 292 82 205 210 234 257 107 152 262 273 244 252 265 285 294 298 299 301 303 301 287 263 250 253 247 210 194 192 194 200 200 200 205 212 219 218 211 209 211 217 220 226 232 241 245 240 245
302 302 274 235 224 227 151 90 46 95 108 97 151 171 173 232 256 196 223 227 136 228 205 236 282 9 79 299 335 60 283 358 34 313 5 42 289 204 175 272 39 307 277 237 129 80 183 212 230 252 266 261 277 282 288 296 300 304 297 293 276 261 258 244 213 202 213 212 212 205 201 203 207 212 218 217 215 215 218 220 224 227 239 240 239 239 239
253 235 229 223 271 29 20 79 79 66 278 191 245 244 184 169 233 219 154 96 182 195 145 263 329 16 298 290 291 135 326 331 308 325 301 126 299 295 268 276 90 265 253 258 133 218 246 204 229 244 267 229 215 127 50 316 310 305 302 286 268 255 245 236 217 215 216 220 212 205 207 206 211 215 216 221 219 221 221 224 227 224 226 224 225 230 234
216 218 8 189 35 73 96 120 151 177 234 253 180 289 218 154 273 331 95 249 194 170 179 237 349 346 317 320 331 359 123 279 322 341 328 314 146 289 47 267 110 265 271 283 126 194 272 287 217 253 270 194 132 95 357 348 336 356 313 269 240 237 237 242 230 227 235 233 229 216 212 221 223 223 216 216 217 216 215 217 218 217 218 215 205 225 230
163 233 205 75 80 124 98 102 156 218 225 224 189 199 313 233 203 316 250 248 240 110 192 320 154 216 177 268 247 317 100 260 12 345 303 292 66 273 247 273 46 277 279 265 113 228 250 275 277 264 282 107 92 45 2 333 0 3 11 347 297 267 252 248 245 237 234 238 237 230 225 227 224 221 220 215 216 220 217 215 218 215 216 221 206 215 222
25 357 38 23 66 38 180 185 239 242 212 252 301 240 230 292 172 197 243 292 53 20 151 212 241 329 45 221 302 303 148 88 303 256 281 272 87 283 321 337 202 270 289 67 89 226 289 268 262 271 197 122 70 18 350 345 359 343 353 358 343 320 296 273 264 254 247 247 243 235 233 231 224 222 222 220 215 213 213 215 219 213 215 216 214 211 215
217 239 273 185 173 172 175 236 199 267 272 239 173 285 215 224 261 321 123 180 108 276 78 196 328 101 115 264 195 181 359 80 267 154 239 326 101 258 267 251 243 245 250 94 249 214 242 255 259 327 48 17 341 2 12 330 337 337 338 340 330 327 314 302 290 280 274 271 286 290 269 234 226 229 226 224 222 217 215 219 220 216 213 212 211 214 209
108 176 203 167 210 128 224 278 199 178 291 237 223 215 201 246 142 186 250 106 132 225 138 304 13 331 332 154 294 118 176 168 218 258 255 105 257 236 245 247 239 78 42 240 226 246 254 269 302 67 6 8 351 4 354 327 331 325 316 327 312 310 317 309 291 278 272 261 237 225 267 298 272 222 210 217 215 216 211 211 211 217 211 215 219 217 207
189 136 250 172 172 130 137 298 232 207 237 185 219 300 315 342 10 326 344 54 288 342 357 264 311 289 292 89 220 149 279 18 116 266 276 246 248 221 246 292 49 164 260 275 259 255 260 267 47 42 18 357 353 353 355 345 345 334 320 309 310 314 302 301 298 289 292 281 233 94 6 329 314 297 257 223 216 215 212 206 198 202 205 215 218 215 202
210 215 190 197 289 229 218 265 141 237 234 240 260 322 318 359 330 329 51 15 286 298 294 337 303 293 305 65 308 355 165 184 233 216 276 249 280 281 224 303 260 273 272 263 270 294 324 32 37 15 11 351 339 340 349 342 337 327 337 318 319 321 329 324 312 294 272 259 221 205 206 209 235 251 259 261 242 225 214 210 200 201 206 213 216 215 194
182 221 257 280 270 221 206 244 210 243 0 203 272 304 315 348 344 321 336 295 281 309 321 333 313 342 318 319 255 193 196 195 273 88 245 268 283 327 184 268 275 263 276 295 321 352 0 22 22 18 355 342 330 328 331 336 325 320 321 318 310 308 312 317 318 320 314 304 278 240 235 220 206 214 226 228 219 226 258 225 197 201 206 212 198 204 198
236 214 244 242 239 201 216 221 301 247 203 279 309 300 326 320 290 268 159 224 286 301 304 316 297 245 235 134 234 302 312 215 274 223 216 299 290 278 301 270 271 307 328 324 359 6 358 19 358 354 338 333 330 325 324 325 328 325 321 316 311 310 309 309 309 315 320 322 318 299 272 241 224 219 200 177 239 229 217 207 201 208 199 194 186 192 203
308 233 246 255 279 292 280 65 265 269 140 182 284 274 246 251 260 295 326 226 260 278 341 316 330 310 343 17 305 302 279 150 271 297 199 238 276 281 284 288 317 328 4 16 359 1 358 352 339 326 331 332 337 332 330 326 332 329 323 323 326 320 314 314 319 317 318 315 313 309 307 299 287 259 204 193 213 225 222 216 200 190 190 192 192 197 203
224 217 218 241 257 243 249 275 244 247 162 208 243 246 245 255 257 165 119 238 190 201 182 226 200 301 351 339 311 303 304 277 297 301 292 296 304 309 311 304 330 335 342 12 12 4 356 342 338 339 343 337 337 337 334 329 328 323 322 322 326 320 317 313 306 305 302 302 302 303 299 300 301 282 249 221 217 213 227 217 197 193 188 195 194 201 204
248 276 268 254 267 319 336 278 356 324 321 359 350 317 301 282 299 94 124 258 145 245 259 338 348 327 333 298 285 302 2 347 284 297 305 324 347 313 323 327 350 7 10 14 358 347 339 334 337 337 340 332 332 329 326 324 320 318 317 319 315 312 309 305 304 303 303 300 300 297 290 282 259 256 273 268 252 230 210 198 197 197 195 195 193 193 190
191 230 246 220 229 257 269 294 257 252 298 216 234 258 286 275 234 130 127 249 221 294 342 344 325 345 311 314 342 322 297 281 294 306 313 10 14 331 355 354 355 1 356 348 350 347 340 344 355 343 334 332 328 326 324 323 321 319 319 319 318 313 309 308 306 304 303 303 298 298 298 286 278 266 248 246 240 227 218 198 193 202 195 197 182 184 186